LFKJLFKF

Guest
Details From LFKJ - Napoleon Bonaparte
To LFKF - Figari Sud Corse
Flight Number -
Tags generated
Created
Modified
Stats Distance 31 nm / 57 km
Max Altitude 3,200 ft / 975 m
Waypoints 3
Social Downloads 3
Likes 0
Share VATSIM

Download

Looking for another format? Having issues loading an existing format? Contact us
Advertisement - Login to hide

Notes

Basic altitude profile: - Ascent Rate: 2500ft/min - Ascent Speed: 250kts - Cruise Altitude: 35000ft - Cruise Speed: 420kts - Descent Rate: 1500ft/min - Descent Speed: 250kts Options: - Use NATs: yes - Use PACOTS: yes - Use low airways: yes - Use high airways: yes

Route

LFKJ AJO LFKF

ID Type Via Altitude (ft/m) Position (lat/lon) Dist (leg/tot) Name
O LFKJ APT - 0 / 0 41.92289 / 8.79959 - / 0 nm Napoleon Bonaparte
AJO VOR - 3,200 / 975 41.77053 / 8.77467 9 / 9 nm AJACCIO VOR-DME
O LFKF APT - 0 / 0 41.50206 / 9.09696 21 / 30 nm Figari Sud Corse

Altitude Profile

Advertisement - Login to hide

LFKJ

Details ICAO LFKJ (AJA)
Name Napoleon Bonaparte
Region France
Timezone Europe/Paris (UTC+2.0)
Stats Elevation 19 ft / 6 m (AMSL)
Location 41.921700° 8.801090°
Runways 1
Magnetic Variation 2.485° E

METAR

LFKJ 251830Z AUTO 20006KT 9999 OVC080 20/16 Q1013 NOSIG

Decode

TAF

TAF LFKJ 251400Z 2515/2615 21010KT 9999 FEW040 SCT080 BKN200 BECMG 2518/2520 04003KT BECMG 2604/2606 32010KT TEMPO 2606/2609 RA BECMG 2609/2611 RA TEMPO 2611/2615 3000 BKN010 FEW030TCU BKN050 BKN080

Decode

Departure Runways

ID Width Length Bearing (true/mag) Surface Threshold Overrun Markings Lighting
02 148 ft / 45 m 7,904 ft / 2,409 m 24.84° / 22.36° CONCRETE 0 ft / 0 m 161 ft / 49 m PREC-APP CENTERLINE EDGE THRESHOLD REIL-OMNI
20 148 ft / 45 m 7,904 ft / 2,409 m 204.85° / 202.36° CONCRETE 741 ft / 226 m 230 ft / 70 m PREC-APP CENTERLINE EDGE THRESHOLD REIL-OMNI

LFKF

Details ICAO LFKF (FSC)
Name Figari Sud Corse
Region France
Timezone Europe/Paris (UTC+2.0)
Stats Elevation 86 ft / 26 m (AMSL)
Location 41.502300° 9.096970°
Runways 1
Magnetic Variation 2.532° E

METAR

LFKF 251830Z AUTO 06006KT CAVOK 18/13 Q1013 NOSIG

Decode

TAF

TAF LFKF 251400Z 2515/2615 05010KT 9999 FEW015 SCT200 BECMG 2522/2524 RA TEMPO 2600/2615 3000 BKN010 PROB40 TEMPO 2608/2615 BKN008 BKN020 FEW035TCU BKN070

Decode

Destination Runways

ID Width Length Bearing (true/mag) Surface Threshold Overrun Markings Lighting
05 148 ft / 45 m 8,144 ft / 2,482 m 47.43° / 44.90° CONCRETE 0 ft / 0 m 0 ft / 0 m APP CENTERLINE EDGE THRESHOLD
23 148 ft / 45 m 8,144 ft / 2,482 m 227.45° / 224.92° CONCRETE 0 ft / 0 m 0 ft / 0 m PREC-APP CENTERLINE EDGE THRESHOLD

Approach Navaids

Runway Type Ident Frequency Range Bearing (true/mag) Slope Elevation
23 GS GR 110.50 MHz 27 nm / 50 km 227.44° / 224.91 ° 3.50° 86 ft / 26 m (AMSL)
23 DME GR 110.50 MHz 18 nm / 33 km - - 131 ft / 40 m (AMSL)
23 OM OM - - 227.43° / 224.90 ° - 87 ft / 27 m (AMSL)
23 LOC-ILS GR 110.50 MHz 27 nm / 50 km 227.44° / 224.91 ° - 86 ft / 26 m (AMSL)

Popular Alternatives